Previsão horária em Bolshie Elbuzdovskie

Hoje, 5 Março, Sexta-feira

Tempo Temperatura Precipitação Vento Pressão Humidade
00:00 0°C° 0 mm 7 m/s 759 mmHg 82%
01:00 0°C° 0 mm 7 m/s 759 mmHg 82%
02:00 -1°C° 0 mm 7 m/s 758 mmHg 82%
03:00 -1°C° 0 mm 6 m/s 758 mmHg 83%
04:00 -1°C° 0 mm 6 m/s 758 mmHg 82%
05:00 -1°C° 0 mm 7 m/s 758 mmHg 82%
06:00 -1°C° 0 mm 7 m/s 758 mmHg 81%
07:00 0°C° 0 mm 7 m/s 758 mmHg 79%
08:00 0°C° 0 mm 8 m/s 757 mmHg 77%
09:00 +1°C° 0 mm 8 m/s 757 mmHg 73%
10:00 +2°C° 0 mm 8 m/s 757 mmHg 69%
11:00 +5°C° 0 mm 8 m/s 757 mmHg 65%
12:00 +6°C° 0 mm 8 m/s 757 mmHg 61%
13:00 +6°C° 0 mm 8 m/s 757 mmHg 59%
14:00 +8°C° 0 mm 7 m/s 757 mmHg 57%
15:00 +9°C° 0 mm 7 m/s 757 mmHg 54%
16:00 +8°C° 0 mm 6 m/s 757 mmHg 58%
17:00 +7°C° 0 mm 5 m/s 757 mmHg 62%
18:00 +7°C° 0 mm 4 m/s 757 mmHg 66%
19:00 +6°C° 0 mm 4 m/s 757 mmHg 68%
20:00 +5°C° 0 mm 4 m/s 757 mmHg 71%
21:00 +4°C° 0 mm 4 m/s 757 mmHg 73%
22:00 +4°C° 0 mm 4 m/s 757 mmHg 75%
23:00 +4°C° 0 mm 4 m/s 757 mmHg 77%

Amanhã, 6 Março, Sábado

Tempo Temperatura Precipitação Vento Pressão Humidade
00:00 +3°C° 0 mm 4 m/s 757 mmHg 79%
01:00 +3°C° 0 mm 4 m/s 757 mmHg 80%
02:00 +3°C° 0 mm 4 m/s 757 mmHg 80%
03:00 +3°C° 0 mm 4 m/s 757 mmHg 81%
04:00 +3°C° 0 mm 4 m/s 756 mmHg 81%
05:00 +3°C° 0 mm 4 m/s 756 mmHg 82%
06:00 +2°C° 0 mm 5 m/s 755 mmHg 83%
07:00 +3°C° 0 mm 5 m/s 755 mmHg 81%
08:00 +4°C° 0 mm 6 m/s 755 mmHg 79%
09:00 +5°C° 0 mm 7 m/s 755 mmHg 78%
10:00 +6°C° 0 mm 7 m/s 755 mmHg 75%
11:00 +8°C° 0 mm 7 m/s 755 mmHg 73%
12:00 +9°C° 0 mm 7 m/s 755 mmHg 71%
13:00 +9°C° 0.1 mm 7 m/s 754 mmHg 70%
14:00 +9°C° 0.1 mm 6 m/s 754 mmHg 70%
15:00 +10°C° 0.1 mm 6 m/s 754 mmHg 69%
16:00 +7°C° 0.2 mm 6 m/s 754 mmHg 76%
17:00 +4°C° 0.2 mm 7 m/s 754 mmHg 83%
18:00 +2°C° 0.2 mm 7 m/s 754 mmHg 90%
19:00 0°C° 0.2 mm 7 m/s 755 mmHg 90%
20:00 -1°C° 0.2 mm 8 m/s 756 mmHg 90%
21:00 -2°C° 0.2 mm 8 m/s 757 mmHg 90%
22:00 -4°C° 0.1 mm 8 m/s 758 mmHg 82%
23:00 -3°C° 0.1 mm 7 m/s 759 mmHg 73%

Depois de amanhã, 7 Março, Domingo

Tempo Temperatura Precipitação Vento Pressão Humidade
00:00 -4°C° 0.1 mm 7 m/s 760 mmHg 64%
01:00 -4°C° 0 mm 7 m/s 761 mmHg 65%
02:00 -5°C° 0 mm 6 m/s 762 mmHg 65%
03:00 -5°C° 0 mm 6 m/s 763 mmHg 66%
04:00 -5°C° 0 mm 5 m/s 763 mmHg 64%
05:00 -5°C° 0 mm 5 m/s 764 mmHg 61%
06:00 -5°C° 0 mm 5 m/s 765 mmHg 59%
07:00 -4°C° 0 mm 4 m/s 765 mmHg 56%
08:00 -4°C° 0 mm 4 m/s 765 mmHg 52%
09:00 -3°C° 0 mm 4 m/s 765 mmHg 49%
10:00 -2°C° 0 mm 4 m/s 765 mmHg 47%
11:00 -1°C° 0 mm 4 m/s 764 mmHg 44%
12:00 0°C° 0 mm 5 m/s 764 mmHg 42%
13:00 0°C° 0 mm 5 m/s 763 mmHg 44%
14:00 +1°C° 0 mm 6 m/s 763 mmHg 46%
15:00 +1°C° 0 mm 6 m/s 762 mmHg 47%
16:00 -1°C° 0 mm 6 m/s 762 mmHg 52%
17:00 -1°C° 0 mm 6 m/s 762 mmHg 57%
18:00 -2°C° 0 mm 6 m/s 761 mmHg 62%
19:00 -2°C° 0 mm 6 m/s 761 mmHg 64%
20:00 -3°C° 0 mm 6 m/s 761 mmHg 66%
21:00 -3°C° 0 mm 6 m/s 761 mmHg 68%
22:00 -3°C° 0 mm 7 m/s 761 mmHg 67%
23:00 -3°C° 0 mm 7 m/s 761 mmHg 67%

8 Março, Segunda-feira

Tempo Temperatura Precipitação Vento Pressão Humidade
00:00 -3°C° 0 mm 7 m/s 760 mmHg 67%
01:00 -3°C° 0 mm 7 m/s 760 mmHg 69%
02:00 -3°C° 0 mm 7 m/s 760 mmHg 72%
03:00 -3°C° 0 mm 7 m/s 760 mmHg 74%
04:00 -3°C° 0 mm 7 m/s 759 mmHg 72%
05:00 -3°C° 0 mm 7 m/s 759 mmHg 71%
06:00 -3°C° 0 mm 7 m/s 759 mmHg 70%
07:00 -2°C° 0 mm 8 m/s 758 mmHg 67%
08:00 -1°C° 0 mm 8 m/s 758 mmHg 64%
09:00 0°C° 0 mm 9 m/s 758 mmHg 60%
10:00 0°C° 0 mm 9 m/s 758 mmHg 60%
11:00 +1°C° 0 mm 9 m/s 758 mmHg 59%
12:00 +2°C° 0 mm 9 m/s 757 mmHg 59%
13:00 +2°C° 0 mm 9 m/s 757 mmHg 58%
14:00 +2°C° 0 mm 9 m/s 757 mmHg 58%
15:00 +3°C° 0 mm 9 m/s 756 mmHg 57%
16:00 +2°C° 0 mm 8 m/s 756 mmHg 60%
17:00 +2°C° 0 mm 7 m/s 756 mmHg 62%
18:00 +2°C° 0 mm 6 m/s 756 mmHg 65%
19:00 +1°C° 0 mm 6 m/s 756 mmHg 68%
20:00 +1°C° 0 mm 6 m/s 756 mmHg 72%
21:00 -1°C° 0 mm 7 m/s 757 mmHg 76%
22:00 -1°C° 0.3 mm 6 m/s 757 mmHg 81%
23:00 -1°C° 0.3 mm 6 m/s 757 mmHg 86%

9 Março, Terça-feira

Tempo Temperatura Precipitação Vento Pressão Humidade
00:00 -1°C° 0.3 mm 5 m/s 757 mmHg 90%
01:00 -1°C° 0.5 mm 4 m/s 757 mmHg 91%
02:00 -1°C° 0.5 mm 3 m/s 757 mmHg 92%
03:00 -1°C° 0.5 mm 2 m/s 757 mmHg 93%
04:00 -1°C° 0.1 mm 2 m/s 757 mmHg 89%
05:00 -1°C° 0.1 mm 2 m/s 757 mmHg 86%
06:00 -2°C° 0.1 mm 2 m/s 758 mmHg 82%
07:00 -1°C° 0 mm 2 m/s 758 mmHg 80%
08:00 -1°C° 0 mm 2 m/s 758 mmHg 77%
09:00 +1°C° 0 mm 1 m/s 758 mmHg 75%
10:00 -1°C° 0.1 mm 2 m/s 758 mmHg 75%
11:00 -1°C° 0.1 mm 2 m/s 758 mmHg 75%
12:00 -1°C° 0.1 mm 3 m/s 759 mmHg 75%
13:00 0°C° 0 mm 3 m/s 759 mmHg 67%
14:00 +1°C° 0 mm 3 m/s 759 mmHg 60%
15:00 +1°C° 0 mm 3 m/s 759 mmHg 52%
16:00 +1°C° 0 mm 3 m/s 759 mmHg 54%
17:00 0°C° 0 mm 3 m/s 759 mmHg 56%
18:00 0°C° 0 mm 3 m/s 760 mmHg 58%
19:00 -1°C° 0 mm 3 m/s 760 mmHg 60%
20:00 -1°C° 0 mm 2 m/s 761 mmHg 62%
21:00 -2°C° 0 mm 2 m/s 761 mmHg 65%
22:00 -2°C° 0 mm 2 m/s 762 mmHg 64%
23:00 -2°C° 0 mm 2 m/s 762 mmHg 63%

10 Março, Quarta-feira

Tempo Temperatura Precipitação Vento Pressão Humidade
00:00 -2°C° 0 mm 2 m/s 762 mmHg 62%
01:00 -2°C° 0 mm 2 m/s 762 mmHg 65%
02:00 -2°C° 0 mm 2 m/s 763 mmHg 69%
03:00 -2°C° 0 mm 3 m/s 763 mmHg 72%
04:00 -4°C° 0 mm 3 m/s 763 mmHg 71%
05:00 -4°C° 0 mm 3 m/s 764 mmHg 71%
06:00 -4°C° 0 mm 3 m/s 764 mmHg 71%
07:00 -4°C° 0 mm 3 m/s 764 mmHg 65%
08:00 -3°C° 0 mm 2 m/s 764 mmHg 60%
09:00 -3°C° 0 mm 2 m/s 764 mmHg 54%
10:00 -2°C° 0 mm 2 m/s 764 mmHg 49%
11:00 +1°C° 0 mm 1 m/s 764 mmHg 43%
12:00 +1°C° 0 mm 1 m/s 764 mmHg 38%
13:00 +2°C° 0 mm 1 m/s 764 mmHg 37%
14:00 +2°C° 0 mm 1 m/s 763 mmHg 35%
15:00 +2°C° 0 mm 1 m/s 763 mmHg 34%
16:00 +2°C° 0 mm 1 m/s 763 mmHg 38%
17:00 +1°C° 0 mm 1 m/s 763 mmHg 41%
18:00 +1°C° 0 mm 1 m/s 762 mmHg 45%
19:00 0°C° 0 mm 1 m/s 763 mmHg 46%
20:00 0°C° 0 mm 1 m/s 763 mmHg 48%
21:00 0°C° 0 mm 1 m/s 763 mmHg 49%
22:00 -1°C° 0 mm 1 m/s 763 mmHg 49%
23:00 -1°C° 0 mm 1 m/s 763 mmHg 50%
Mostrar mais